Location: Althorst
(53.6379°N, 10.7715°E)
Time: 19:39:39
(UTC+00:00)

SL-16 R/B - Pass Details

Date: 10 December 2019
Orbit: 840 x 849 km, 71.0° (Epoch: 25 January)

Event Time Altitude Azimuth Distance (km) Brightness Sun altitude
Rises 19:06:07 0° 233° (SW) 3,402 5.9 -35.4°
Reaches altitude 10° 19:08:39 10° 240° (WSW) 2,471 5.1 -35.8°
Enters shadow 19:12:27 36° 271° (W) 1,322 3.5 -36.3°
